Time,TemperatureF,DewpointF,PressureIn,WindDirection,WindDirectionDegrees,WindSpeedMPH,WindSpeedGustMPH,Humidity,HourlyPrecipIn,Conditions,Clouds,dailyrainin,SoftwareType,DateUTC
2013-04-15 00:02:00,53.0,50.0,29.64,North,0,0.0,0.0,91,0.00,,,0.43,,2013-04-15 05:02:00,
2013-04-15 00:12:00,53.0,50.0,29.64,North,0,0.0,0.0,91,0.00,,,0.43,,2013-04-15 05:12:00,
2013-04-15 00:23:00,52.0,49.0,29.63,North,0,0.0,3.0,90,0.00,,,0.43,,2013-04-15 05:23:00,
2013-04-15 00:32:00,52.0,49.0,29.63,North,0,0.0,3.0,91,0.00,,,0.43,,2013-04-15 05:32:00,
2013-04-15 00:42:00,52.0,49.0,29.63,North,0,0.0,3.0,91,0.00,,,0.43,,2013-04-15 05:42:00,
2013-04-15 00:52:00,51.0,48.0,29.63,WNW,301,2.0,3.0,91,0.00,,,0.43,,2013-04-15 05:52:00,
2013-04-15 01:02:00,51.0,48.0,29.65,WNW,288,3.0,6.0,89,0.00,,,0.43,,2013-04-15 06:02:00,
2013-04-15 01:12:00,51.0,48.0,29.65,WNW,288,3.0,6.0,89,0.00,,,0.43,,2013-04-15 06:12:00,
2013-04-15 01:22:00,51.0,48.0,29.65,WNW,294,4.0,7.0,88,0.00,,,0.43,,2013-04-15 06:22:00,
2013-04-15 01:33:00,51.0,45.0,29.67,WNW,288,4.0,10.0,80,0.00,,,0.43,,2013-04-15 06:33:00,
2013-04-15 01:42:00,51.0,45.0,29.67,WNW,288,4.0,10.0,80,0.00,,,0.43,,2013-04-15 06:42:00,
2013-04-15 01:52:00,51.0,45.0,29.68,WNW,292,2.0,6.0,80,0.00,,,0.43,,2013-04-15 06:52:00,
2013-04-15 02:02:00,50.0,44.0,29.69,WNW,294,1.0,4.0,81,0.00,,,0.43,,2013-04-15 07:02:00,
2013-04-15 02:41:00,50.0,45.0,29.70,North,0,0.0,1.0,82,0.00,,,0.43,,2013-04-15 07:41:00,
2013-04-15 02:42:00,48.0,43.0,29.70,North,0,0.0,0.0,83,0.00,,,0.43,,2013-04-15 07:42:00,
2013-04-15 02:53:00,47.0,42.0,29.70,North,0,0.0,1.0,84,0.00,,,0.43,,2013-04-15 07:53:00,
2013-04-15 03:02:00,47.0,42.0,29.70,SE,145,1.0,2.0,83,0.00,,,0.43,,2013-04-15 08:02:00,
2013-04-15 03:13:00,47.0,42.0,29.70,SE,145,1.0,2.0,83,0.00,,,0.43,,2013-04-15 08:13:00,
2013-04-15 03:22:00,46.0,41.0,29.71,North,0,0.0,0.0,84,0.00,,,0.43,,2013-04-15 08:22:00,
2013-04-15 03:33:00,46.0,42.0,29.71,North,0,0.0,0.0,85,0.00,,,0.43,,2013-04-15 08:33:00,
2013-04-15 03:42:00,46.0,42.0,29.71,North,0,0.0,0.0,85,0.00,,,0.43,,2013-04-15 08:42:00,
2013-04-15 03:52:00,45.0,41.0,29.72,SSW,193,1.0,3.0,86,0.00,,,0.43,,2013-04-15 08:52:00,
2013-04-15 04:02:00,45.0,41.0,29.71,SSE,148,2.0,2.0,86,0.00,,,0.43,,2013-04-15 09:02:00,
2013-04-15 04:12:00,45.0,41.0,29.71,SSE,148,2.0,2.0,86,0.00,,,0.43,,2013-04-15 09:12:00,
2013-04-15 04:22:00,45.0,41.0,29.72,SSE,161,1.0,2.0,87,0.00,,,0.43,,2013-04-15 09:22:00,
2013-04-15 04:32:00,44.0,40.0,29.72,North,0,0.0,1.0,86,0.00,,,0.43,,2013-04-15 09:32:00,
2013-04-15 04:42:00,44.0,40.0,29.72,North,0,0.0,1.0,86,0.00,,,0.43,,2013-04-15 09:42:00,
2013-04-15 04:53:00,45.0,41.0,29.72,North,0,0.0,0.0,87,0.00,,,0.43,,2013-04-15 09:53:00,
2013-04-15 05:02:00,45.0,41.0,29.71,SSE,149,1.0,3.0,86,0.01,,,0.43,,2013-04-15 10:02:00,
2013-04-15 05:13:00,45.0,41.0,29.71,SSE,149,1.0,3.0,86,0.01,,,0.43,,2013-04-15 10:13:00,
2013-04-15 05:23:00,45.0,41.0,29.71,SSE,155,1.0,4.0,85,0.01,,,0.43,,2013-04-15 10:23:00,
2013-04-15 05:33:00,45.0,41.0,29.73,SSE,149,2.0,3.0,85,0.01,,,0.43,,2013-04-15 10:33:00,
2013-04-15 05:42:00,45.0,41.0,29.73,SSE,149,2.0,3.0,85,0.01,,,0.43,,2013-04-15 10:42:00,
2013-04-15 05:52:00,44.0,40.0,29.73,SSE,152,2.0,4.0,86,0.01,,,0.43,,2013-04-15 10:52:00,
2013-04-15 06:03:00,45.0,41.0,29.73,SSE,157,2.0,4.0,85,0.00,,,0.43,,2013-04-15 11:03:00,
2013-04-15 06:12:00,45.0,41.0,29.73,SSE,157,2.0,4.0,85,0.00,,,0.43,,2013-04-15 11:12:00,
2013-04-15 06:22:00,45.0,41.0,29.73,SSW,192,1.0,4.0,85,0.00,,,0.43,,2013-04-15 11:22:00,
2013-04-15 06:32:00,44.0,39.0,29.73,SSE,151,2.0,4.0,84,0.00,,,0.43,,2013-04-15 11:32:00,
2013-04-15 06:42:00,44.0,39.0,29.73,SSE,151,2.0,4.0,84,0.00,,,0.43,,2013-04-15 11:42:00,
2013-04-15 06:53:00,44.0,39.0,29.73,SSE,151,2.0,4.0,84,0.00,,,0.43,,2013-04-15 11:53:00,
2013-04-15 07:04:00,44.0,39.0,29.74,South,176,2.0,6.0,83,0.00,,,0.43,,2013-04-15 12:04:00,
2013-04-15 07:14:00,44.0,39.0,29.74,South,176,2.0,6.0,83,0.00,,,0.43,,2013-04-15 12:14:00,
2013-04-15 07:23:00,44.0,39.0,29.74,South,176,2.0,6.0,83,0.00,,,0.43,,2013-04-15 12:23:00,
2013-04-15 07:33:00,44.0,39.0,29.74,South,176,2.0,6.0,83,0.00,,,0.43,,2013-04-15 12:33:00,
2013-04-15 08:23:00,47.0,41.0,29.80,West,267,6.0,15.0,81,0.00,,,0.43,,2013-04-15 13:23:00,
2013-04-15 08:34:00,47.0,41.0,29.80,West,278,6.0,13.0,78,0.00,,,0.43,,2013-04-15 13:34:00,
2013-04-15 08:43:00,47.0,41.0,29.80,West,278,6.0,13.0,78,0.00,,,0.43,,2013-04-15 13:43:00,
2013-04-15 08:54:00,47.0,39.0,29.80,WNW,286,6.0,15.0,74,0.00,,,0.43,,2013-04-15 13:54:00,
2013-04-15 09:04:00,46.0,39.0,29.81,WNW,285,7.0,15.0,75,0.00,,,0.43,,2013-04-15 14:04:00,
2013-04-15 09:12:00,46.0,39.0,29.81,WNW,285,7.0,15.0,75,0.00,,,0.43,,2013-04-15 14:12:00,
2013-04-15 09:22:00,46.0,39.0,29.81,WNW,299,6.0,10.0,75,0.00,,,0.43,,2013-04-15 14:22:00,
2013-04-15 09:33:00,46.0,37.0,29.82,WNW,299,6.0,10.0,72,0.00,,,0.43,,2013-04-15 14:33:00,
2013-04-15 09:44:00,46.0,37.0,29.82,WNW,299,6.0,10.0,72,0.00,,,0.43,,2013-04-15 14:44:00,
2013-04-15 09:54:00,46.0,36.0,29.82,WNW,292,7.0,13.0,69,0.00,,,0.43,,2013-04-15 14:54:00,
2013-04-15 10:03:00,47.0,35.0,29.82,WNW,300,9.0,14.0,64,0.00,,,0.43,,2013-04-15 15:03:00,
2013-04-15 10:13:00,47.0,35.0,29.82,WNW,300,9.0,14.0,64,0.00,,,0.43,,2013-04-15 15:13:00,
2013-04-15 10:23:00,48.0,36.0,29.81,WNW,288,6.0,14.0,62,0.00,,,0.43,,2013-04-15 15:23:00,
2013-04-15 10:34:00,47.0,33.0,29.83,WNW,284,7.0,14.0,59,0.00,,,0.43,,2013-04-15 15:34:00,
2013-04-15 10:43:00,47.0,33.0,29.83,WNW,284,7.0,14.0,59,0.00,,,0.43,,2013-04-15 15:43:00,
2013-04-15 10:54:00,48.0,34.0,29.83,WSW,258,6.0,14.0,59,0.00,,,0.43,,2013-04-15 15:54:00,
2013-04-15 11:04:00,48.0,35.0,29.85,WNW,283,6.0,12.0,61,0.00,,,0.43,,2013-04-15 16:04:00,
2013-04-15 11:13:00,48.0,35.0,29.85,WNW,283,6.0,12.0,61,0.00,,,0.43,,2013-04-15 16:13:00,
2013-04-15 11:24:00,47.0,33.0,29.85,WNW,290,8.0,14.0,57,0.00,,,0.43,,2013-04-15 16:24:00,
2013-04-15 11:33:00,47.0,33.0,29.86,WNW,283,7.0,13.0,58,0.00,,,0.43,,2013-04-15 16:33:00,
2013-04-15 11:44:00,47.0,33.0,29.86,WNW,283,7.0,13.0,58,0.00,,,0.43,,2013-04-15 16:44:00,
2013-04-15 11:54:00,48.0,33.0,29.88,WNW,284,10.0,18.0,55,0.00,,,0.43,,2013-04-15 16:54:00,
2013-04-15 12:03:00,48.0,33.0,29.89,WNW,288,11.0,18.0,55,0.00,,,0.43,,2013-04-15 17:03:00,
2013-04-15 12:14:00,48.0,33.0,29.89,WNW,288,11.0,18.0,55,0.00,,,0.43,,2013-04-15 17:14:00,
2013-04-15 12:22:00,47.0,31.0,29.87,WNW,301,7.0,15.0,54,0.00,,,0.43,,2013-04-15 17:22:00,
2013-04-15 12:33:00,46.0,33.0,29.87,NNW,343,5.0,15.0,60,0.00,,,0.43,,2013-04-15 17:33:00,
2013-04-15 12:43:00,46.0,33.0,29.87,NNW,343,5.0,15.0,60,0.00,,,0.43,,2013-04-15 17:43:00,
2013-04-15 13:03:00,46.0,32.0,29.88,NW,323,4.0,10.0,57,0.00,,,0.43,,2013-04-15 18:03:00,
2013-04-15 13:12:00,46.0,32.0,29.88,NW,323,4.0,10.0,57,0.00,,,0.43,,2013-04-15 18:12:00,
2013-04-15 13:23:00,46.0,31.0,29.89,WNW,297,4.0,11.0,56,0.00,,,0.43,,2013-04-15 18:23:00,
2013-04-15 13:32:00,46.0,32.0,29.90,NW,317,4.0,11.0,57,0.00,,,0.43,,2013-04-15 18:32:00,
2013-04-15 13:42:00,46.0,32.0,29.90,NW,317,4.0,11.0,57,0.00,,,0.43,,2013-04-15 18:42:00,
2013-04-15 13:52:00,45.0,31.0,29.91,NW,304,5.0,11.0,58,0.00,,,0.43,,2013-04-15 18:52:00,
2013-04-15 14:02:00,44.0,31.0,29.91,NW,313,7.0,13.0,61,0.00,,,0.43,,2013-04-15 19:02:00,
2013-04-15 14:12:00,44.0,31.0,29.91,NW,313,7.0,13.0,61,0.00,,,0.43,,2013-04-15 19:12:00,
2013-04-15 14:22:00,43.0,34.0,29.92,North,359,4.0,13.0,70,0.00,,,0.43,,2013-04-15 19:22:00,
2013-04-15 14:49:00,42.0,33.0,29.91,NW,321,5.0,12.0,70,0.00,,,0.43,,2013-04-15 19:49:00,
2013-04-15 15:01:00,42.0,33.0,29.92,WNW,298,6.0,14.0,70,0.00,,,0.43,,2013-04-15 20:01:00,
2013-04-15 15:02:00,42.0,33.0,29.92,WNW,298,7.0,14.0,69,0.00,,,0.43,,2013-04-15 20:02:00,
2013-04-15 15:11:00,42.0,33.0,29.92,WNW,298,7.0,14.0,69,0.00,,,0.43,,2013-04-15 20:11:00,
2013-04-15 15:22:00,42.0,33.0,29.91,NW,324,4.0,14.0,69,0.00,,,0.43,,2013-04-15 20:22:00,
2013-04-15 15:32:00,42.0,33.0,29.91,WNW,299,6.0,10.0,71,0.00,,,0.43,,2013-04-15 20:32:00,
2013-04-15 15:42:00,42.0,33.0,29.91,WNW,299,6.0,10.0,71,0.00,,,0.43,,2013-04-15 20:42:00,
2013-04-15 15:52:00,41.0,32.0,29.91,WNW,303,5.0,10.0,70,0.00,,,0.43,,2013-04-15 20:52:00,
2013-04-15 16:02:00,42.0,33.0,29.91,NNW,330,2.0,10.0,69,0.00,,,0.43,,2013-04-15 21:02:00,
2013-04-15 16:12:00,42.0,33.0,29.91,NNW,330,2.0,10.0,69,0.00,,,0.43,,2013-04-15 21:12:00,
2013-04-15 16:22:00,42.0,33.0,29.91,WNW,299,3.0,11.0,70,0.00,,,0.43,,2013-04-15 21:22:00,
2013-04-15 16:32:00,42.0,32.0,29.91,WNW,302,6.0,12.0,67,0.00,,,0.43,,2013-04-15 21:32:00,
2013-04-15 16:42:00,42.0,32.0,29.91,WNW,302,6.0,12.0,67,0.00,,,0.43,,2013-04-15 21:42:00,
2013-04-15 16:53:00,42.0,32.0,29.90,WNW,301,4.0,11.0,67,0.00,,,0.43,,2013-04-15 21:53:00,
2013-04-15 17:02:00,43.0,33.0,29.91,NW,319,5.0,9.0,67,0.00,,,0.43,,2013-04-15 22:02:00,
2013-04-15 17:13:00,43.0,33.0,29.91,NW,319,5.0,9.0,67,0.00,,,0.43,,2013-04-15 22:13:00,
2013-04-15 17:23:00,43.0,33.0,29.91,NW,305,4.0,9.0,67,0.00,,,0.43,,2013-04-15 22:23:00,
2013-04-15 17:33:00,43.0,33.0,29.91,NNW,340,4.0,9.0,68,0.00,,,0.43,,2013-04-15 22:33:00,
2013-04-15 17:42:00,43.0,33.0,29.91,NNW,340,4.0,9.0,68,0.00,,,0.43,,2013-04-15 22:42:00,
2013-04-15 17:52:00,43.0,33.0,29.91,NNW,336,2.0,10.0,68,0.00,,,0.43,,2013-04-15 22:52:00,
2013-04-15 18:02:00,43.0,33.0,29.91,NNW,347,2.0,8.0,68,0.00,,,0.43,,2013-04-15 23:02:00,
2013-04-15 18:12:00,43.0,33.0,29.91,NNW,347,2.0,8.0,68,0.00,,,0.43,,2013-04-15 23:12:00,
2013-04-15 18:22:00,43.0,33.0,29.91,NNW,346,4.0,9.0,68,0.00,,,0.43,,2013-04-15 23:22:00,
2013-04-15 18:32:00,43.0,33.0,29.91,NW,312,3.0,9.0,67,0.00,,,0.43,,2013-04-15 23:32:00,
2013-04-15 18:42:00,43.0,33.0,29.91,NW,312,3.0,9.0,67,0.00,,,0.43,,2013-04-15 23:42:00,
2013-04-15 18:52:00,43.0,33.0,29.91,NW,312,3.0,9.0,67,0.00,,,0.43,,2013-04-15 23:52:00,
2013-04-15 19:02:00,42.0,33.0,29.93,NNW,341,4.0,8.0,71,0.00,,,0.36,,2013-04-16 00:02:00,
2013-04-15 19:12:00,42.0,33.0,29.93,NNW,341,4.0,8.0,71,0.00,,,0.36,,2013-04-16 00:12:00,
2013-04-15 19:22:00,42.0,33.0,29.94,NNW,340,3.0,9.0,71,0.00,,,0.34,,2013-04-16 00:22:00,
2013-04-15 19:32:00,42.0,33.0,29.94,NNW,340,2.0,5.0,70,0.00,,,0.28,,2013-04-16 00:32:00,
2013-04-15 19:42:00,42.0,33.0,29.94,NNW,340,2.0,5.0,70,0.00,,,0.28,,2013-04-16 00:42:00,
2013-04-15 19:52:00,42.0,33.0,29.94,North,357,1.0,6.0,71,0.00,,,0.19,,2013-04-16 00:52:00,
2013-04-15 20:02:00,42.0,34.0,29.95,NW,322,2.0,5.0,72,0.00,,,0.18,,2013-04-16 01:02:00,
2013-04-15 20:12:00,42.0,34.0,29.95,North,0,0.0,3.0,72,0.00,,,0.17,,2013-04-16 01:12:00,
2013-04-15 20:22:00,42.0,34.0,29.95,North,0,0.0,3.0,72,0.00,,,0.17,,2013-04-16 01:22:00,
2013-04-15 20:32:00,42.0,34.0,29.96,WNW,290,1.0,3.0,72,0.00,,,0.15,,2013-04-16 01:32:00,
2013-04-15 20:42:00,42.0,34.0,29.96,WNW,290,1.0,3.0,72,0.00,,,0.15,,2013-04-16 01:42:00,
2013-04-15 20:52:00,42.0,34.0,29.97,WNW,298,2.0,4.0,73,0.00,,,0.13,,2013-04-16 01:52:00,
2013-04-15 21:02:00,42.0,34.0,29.97,North,0,0.0,3.0,73,0.00,,,0.12,,2013-04-16 02:02:00,
2013-04-15 21:12:00,42.0,34.0,29.97,North,0,0.0,3.0,73,0.00,,,0.12,,2013-04-16 02:12:00,
2013-04-15 21:22:00,41.0,34.0,29.99,North,0,0.0,2.0,75,0.00,,,0.04,,2013-04-16 02:22:00,
2013-04-15 21:32:00,41.0,34.0,30.00,WNW,283,1.0,3.0,75,0.00,,,0.03,,2013-04-16 02:32:00,
2013-04-15 21:42:00,41.0,34.0,30.00,WNW,283,1.0,3.0,75,0.00,,,0.03,,2013-04-16 02:42:00,
2013-04-15 21:52:00,41.0,34.0,30.01,North,0,0.0,2.0,75,0.00,,,0.01,,2013-04-16 02:52:00,
2013-04-15 22:02:00,41.0,34.0,30.01,North,0,0.0,0.0,76,0.00,,,0.01,,2013-04-16 03:02:00,
2013-04-15 22:12:00,41.0,34.0,30.01,North,0,0.0,0.0,76,0.00,,,0.01,,2013-04-16 03:12:00,
2013-04-15 22:22:00,41.0,34.0,30.02,North,0,0.0,2.0,76,0.00,,,0.01,,2013-04-16 03:22:00,
2013-04-15 22:33:00,41.0,34.0,30.03,WNW,284,1.0,3.0,76,0.00,,,0.01,,2013-04-16 03:33:00,
2013-04-15 22:43:00,41.0,34.0,30.03,WNW,284,1.0,3.0,76,0.00,,,0.01,,2013-04-16 03:43:00,
2013-04-15 22:52:00,41.0,34.0,30.04,WNW,283,1.0,3.0,76,0.00,,,0.01,,2013-04-16 03:52:00,
2013-04-15 23:03:00,41.0,34.0,30.03,WNW,301,1.0,3.0,76,0.00,,,0.01,,2013-04-16 04:03:00,
2013-04-15 23:12:00,41.0,34.0,30.03,WNW,301,1.0,3.0,76,0.00,,,0.01,,2013-04-16 04:12:00,
2013-04-15 23:23:00,42.0,35.0,30.04,WNW,295,2.0,4.0,76,0.00,,,0.01,,2013-04-16 04:23:00,
2013-04-15 23:33:00,41.0,35.0,30.03,NW,304,1.0,4.0,78,0.00,,,0.01,,2013-04-16 04:33:00,
2013-04-15 23:42:00,41.0,35.0,30.03,NW,304,1.0,4.0,78,0.00,,,0.01,,2013-04-16 04:42:00,
2013-04-15 23:53:00,41.0,35.0,30.03,NNW,331,1.0,4.0,79,0.00,,,0.01,,2013-04-16 04:53:00,